| time (UTC) | temp C | wind direction | speed KPH | gust KPH | rain 1hr cm | rain 24hr cm | rain mn cm | humidity % | barometer mb |
| 20260506202438 | 24 | 0.0 | 0.0 | 0.00 | 0.00 | 0.00 | 54 | 1018.9 | |
| 20260506201418 | 23 | 0.0 | 0.0 | 0.00 | 0.00 | 0.00 | 55 | 1019.0 | |
| 20260506200419 | 23 | 0.0 | 0.0 | 0.00 | 0.00 | 0.00 | 56 | 1019.1 | |
| 20260506195419 | 22 | 0.0 | 0.0 | 0.00 | 0.00 | 0.00 | 57 | 1019.2 | |
| 20260506194417 | 22 | 0.0 | 0.0 | 0.00 | 0.00 | 0.00 | 58 | 1019.4 | |
| 20260506193418 | 22 | 0.0 | 0.0 | 0.00 | 0.00 | 0.00 | 57 | 1019.5 | |
| 20260506192439 | 22 | 0.0 | 0.0 | 0.00 | 0.00 | 0.00 | 59 | 1019.7 | |
| 20260506191417 | 22 | 0.0 | 0.0 | 0.00 | 0.00 | 0.00 | 59 | 1019.8 | |
| 20260506190507 | 21 | 0.0 | 0.0 | 0.00 | 0.00 | 0.00 | 62 | 1019.9 | |
| 20260506190248 | 21 | 0.0 | 0.0 | 0.00 | 0.00 | 0.00 | 62 | 1019.9 | |
| 20260506185116 | 21 | 0.0 | 0.0 | 0.00 | 0.00 | 0.00 | 61 | 1020.0 | |
| 20260506184117 | 21 | 0.0 | 0.0 | 0.00 | 0.00 | 0.00 | 62 | 1020.2 | |
| 20260506183116 | 20 | 0.0 | 0.0 | 0.00 | 0.00 | 0.00 | 65 | 1020.2 | |
| 20260506182116 | 20 | 0.0 | 0.0 | 0.00 | 0.00 | 0.00 | 64 | 1020.3 | |
| 20260506181117 | 20 | 0.0 | 0.0 | 0.00 | 0.00 | 0.00 | 66 | 1020.3 | |
| 20260506180116 | 19 | 0.0 | 0.0 | 0.00 | 0.00 | 0.00 | 67 | 1020.4 | |
| 20260506175156 | 18 | 0.0 | 0.0 | 0.00 | 0.00 | 0.00 | 68 | 1020.4 | |
| 20260506174116 | 18 | 0.0 | 0.0 | 0.00 | 0.00 | 0.00 | 69 | 1020.5 | |
| 20260506173116 | 18 | 0.0 | 0.0 | 0.00 | 0.00 | 0.00 | 69 | 1020.5 | |
| 20260506172116 | 18 | 0.0 | 0.0 | 0.00 | 0.00 | 0.00 | 69 | 1020.6 | |
| 20260506171137 | 18 | 0.0 | 0.0 | 0.00 | 0.00 | 0.00 | 70 | 1020.7 | |
| 20260506170116 | 17 | 0.0 | 0.0 | 0.00 | 0.00 | 0.00 | 74 | 1020.9 | |
| 20260506165116 | 16 | 0.0 | 0.0 | 0.00 | 0.00 | 0.00 | 76 | 1020.9 | |
| 20260506164116 | 16 | 0.0 | 0.0 | 0.00 | 0.00 | 0.00 | 75 | 1020.9 | |
| 20260506163137 | 16 | 0.0 | 0.0 | 0.00 | 0.00 | 0.00 | 80 | 1021.0 | |
| 20260506162116 | 15 | 0.0 | 0.0 | 0.00 | 0.00 | 0.00 | 81 | 1021.1 | |
| 20260506161136 | 15 | 0.0 | 0.0 | 0.00 | 0.00 | 0.00 | 85 | 1021.0 | |
| 20260506160116 | 13 | 0.0 | 0.0 | 0.00 | 0.00 | 0.00 | 87 | 1021.1 | |
| 20260506155116 | 13 | 0.0 | 0.0 | 0.00 | 0.00 | 0.00 | 88 | 1021.2 | |
| 20260506154116 | 13 | 0.0 | 0.0 | 0.00 | 0.00 | 0.00 | 88 | 1021.2 | |
| 20260506153116 | 13 | 0.0 | 0.0 | 0.00 | 0.00 | 0.00 | 90 | 1021.3 | |
| 20260506152116 | 13 | 0.0 | 0.0 | 0.00 | 0.00 | 0.00 | 94 | 1021.3 | |
| 20260506151116 | 12 | 0.0 | 0.0 | 0.00 | 0.00 | 0.00 | 92 | 1021.3 | |
| 20260506150117 | 11 | 0.0 | 0.0 | 0.00 | 0.00 | 0.00 | 92 | 1021.3 | |
| 20260506145116 | 11 | 0.0 | 0.0 | 0.00 | 0.00 | 0.00 | 92 | 1021.3 | |
| 20260506144116 | 11 | 0.0 | 0.0 | 0.00 | 0.00 | 0.00 | 93 | 1021.3 | |
| 20260506143116 | 10 | 0.0 | 0.0 | 0.00 | 0.00 | 0.00 | 93 | 1021.4 | |
| 20260506142136 | 10 | 0.0 | 0.0 | 0.00 | 0.00 | 0.00 | 93 | 1021.3 | |
| 20260506141116 | 9 | 0.0 | 0.0 | 0.00 | 0.00 | 0.00 | 92 | 1021.2 | |
| 20260506140116 | 9 | 0.0 | 0.0 | 0.00 | 0.00 | 0.00 | 92 | 1021.0 | |
| 20260506135117 | 8 | 0.0 | 0.0 | 0.00 | 0.00 | 0.00 | 91 | 1020.9 | |
| 20260506134117 | 8 | 0.0 | 0.0 | 0.00 | 0.00 | 0.00 | 91 | 1020.8 | |
| 20260506133137 | 8 | 0.0 | 0.0 | 0.00 | 0.00 | 0.00 | 91 | 1020.7 | |
| 20260506132137 | 8 | 0.0 | 0.0 | 0.00 | 0.00 | 0.00 | 91 | 1020.6 | |
| 20260506131116 | 8 | 0.0 | 0.0 | 0.00 | 0.00 | 0.00 | 91 | 1020.6 | |
| 20260506130212 | 7 | 0.0 | 0.0 | 0.00 | 0.00 | 0.00 | 90 | 1020.5 | |
| 20260506125117 | 8 | 0.0 | 0.0 | 0.00 | 0.00 | 0.00 | 90 | 1020.4 | |
| 20260506124117 | 8 | 0.0 | 0.0 | 0.00 | 0.00 | 0.00 | 90 | 1020.3 | |
| 20260506123117 | 8 | 0.0 | 0.0 | 0.00 | 0.00 | 0.00 | 90 | 1020.3 | |
| 20260506122117 | 8 | 0.0 | 0.0 | 0.00 | 0.00 | 0.00 | 90 | 1020.3 | |
| 20260506121157 | 8 | 0.0 | 0.0 | 0.00 | 0.00 | 0.00 | 90 | 1020.1 | |
| 20260506120119 | 8 | 0.0 | 0.0 | 0.00 | 0.00 | 0.00 | 89 | 1020.1 | |
| 20260506115117 | 8 | 0.0 | 0.0 | 0.00 | 0.00 | 0.00 | 89 | 1020.1 | |
| 20260506114117 | 8 | 0.0 | 0.0 | 0.00 | 0.00 | 0.00 | 89 | 1020.0 | |
| 20260506113117 | 8 | 0.0 | 0.0 | 0.00 | 0.00 | 0.00 | 89 | 1019.9 | |
| 20260506112117 | 9 | 0.0 | 0.0 | 0.00 | 0.00 | 0.00 | 89 | 1019.8 | |
| 20260506111118 | 9 | 0.0 | 0.0 | 0.00 | 0.00 | 0.00 | 89 | 1019.8 | |
| 20260506110117 | 9 | 0.0 | 0.0 | 0.00 | 0.00 | 0.00 | 89 | 1019.8 | |
| 20260506105158 | 10 | 0.0 | 0.0 | 0.00 | 0.00 | 0.00 | 89 | 1019.9 | |
| 20260506104117 | 10 | 0.0 | 0.0 | 0.00 | 0.00 | 0.00 | 89 | 1019.8 | |
| 20260506103117 | 10 | 0.0 | 0.0 | 0.00 | 0.00 | 0.00 | 89 | 1019.8 | |
| 20260506102200 | 10 | 0.0 | 0.0 | 0.00 | 0.00 | 0.00 | 89 | 1019.7 | |
| 20260506101118 | 10 | 0.0 | 0.0 | 0.00 | 0.00 | 0.00 | 89 | 1019.6 | |
| 20260506100117 | 10 | 0.0 | 0.0 | 0.00 | 0.00 | 0.00 | 89 | 1019.6 | |
| 20260506095138 | 10 | 0.0 | 0.0 | 0.00 | 0.00 | 0.00 | 89 | 1019.6 | |
| 20260506094117 | 10 | 0.0 | 0.0 | 0.00 | 0.00 | 0.00 | 89 | 1019.6 | |
| 20260506093117 | 10 | 0.0 | 0.0 | 0.00 | 0.00 | 0.00 | 89 | 1019.7 | |
| 20260506092117 | 10 | 0.0 | 0.0 | 0.00 | 0.00 | 0.00 | 89 | 1019.7 | |
| 20260506091137 | 10 | 0.0 | 0.0 | 0.00 | 0.00 | 0.00 | 88 | 1019.8 | |
| 20260506090117 | 10 | 0.0 | 0.0 | 0.00 | 0.00 | 0.00 | 88 | 1019.8 | |
| 20260506085117 | 10 | 0.0 | 0.0 | 0.00 | 0.00 | 0.00 | 88 | 1019.7 | |
| 20260506084117 | 10 | 0.0 | 0.0 | 0.00 | 0.00 | 0.00 | 88 | 1019.6 | |
| 20260506083117 | 10 | 0.0 | 0.0 | 0.00 | 0.00 | 0.00 | 88 | 1019.6 | |
| 20260506082138 | 10 | 0.0 | 0.0 | 0.00 | 0.00 | 0.00 | 88 | 1019.7 | |
| 20260506081117 | 10 | 0.0 | 0.0 | 0.00 | 0.00 | 0.00 | 88 | 1019.7 | |
| 20260506080117 | 10 | 0.0 | 0.0 | 0.00 | 0.00 | 0.00 | 88 | 1019.7 | |
| 20260506073117 | 10 | 0.0 | 0.0 | 0.00 | 0.00 | 0.00 | 87 | 1019.4 | |
| 20260506072117 | 10 | 0.0 | 0.0 | 0.00 | 0.00 | 0.00 | 86 | 1019.3 | |
| 20260506071117 | 10 | 0.0 | 0.0 | 0.00 | 0.00 | 0.00 | 86 | 1019.3 | |
| 20260506070217 | 10 | 0.0 | 0.0 | 0.00 | 0.00 | 0.00 | 86 | 1019.2 | |
| 20260506062117 | 11 | 0.0 | 0.0 | 0.00 | 0.00 | 0.00 | 85 | 1018.9 | |
| 20260506061116 | 11 | 0.0 | 0.0 | 0.00 | 0.00 | 0.00 | 85 | 1018.8 | |
| 20260506060137 | 11 | 0.0 | 0.0 | 0.00 | 0.00 | 0.00 | 85 | 1018.7 | |
| 20260506051116 | 12 | 0.0 | 0.0 | 0.00 | 0.00 | 0.00 | 82 | 1018.5 | |
| 20260506050117 | 13 | 0.0 | 0.0 | 0.00 | 0.00 | 0.00 | 82 | 1018.4 | |
| 20260506045116 | 13 | 0.0 | 0.0 | 0.00 | 0.00 | 0.00 | 81 | 1018.4 | |
| 20260506044116 | 13 | 0.0 | 0.0 | 0.00 | 0.00 | 0.00 | 81 | 1018.3 | |
| 20260506043116 | 13 | 0.0 | 0.0 | 0.00 | 0.00 | 0.00 | 81 | 1018.3 | |
| 20260506042116 | 13 | 0.0 | 0.0 | 0.00 | 0.00 | 0.00 | 81 | 1018.1 | |
| 20260506041117 | 13 | 0.0 | 0.0 | 0.00 | 0.00 | 0.00 | 81 | 1018.0 | |
| 20260506040137 | 13 | 0.0 | 0.0 | 0.00 | 0.00 | 0.00 | 81 | 1017.9 | |
| 20260506035117 | 13 | 0.0 | 0.0 | 0.00 | 0.00 | 0.00 | 81 | 1017.8 | |
| 20260506034116 | 13 | 0.0 | 0.0 | 0.00 | 0.00 | 0.00 | 81 | 1017.7 | |
| 20260506033116 | 13 | 0.0 | 0.0 | 0.00 | 0.00 | 0.00 | 80 | 1017.4 | |
| 20260506032117 | 13 | 0.0 | 0.0 | 0.00 | 0.00 | 0.00 | 80 | 1017.3 | |
| 20260506031116 | 13 | 0.0 | 0.0 | 0.00 | 0.00 | 0.00 | 80 | 1017.0 | |
| 20260506030117 | 14 | 0.0 | 0.0 | 0.00 | 0.00 | 0.00 | 79 | 1016.9 | |
| 20260506025116 | 14 | 0.0 | 0.0 | 0.00 | 0.00 | 0.00 | 79 | 1016.7 | |
| 20260506024116 | 14 | 0.0 | 0.0 | 0.00 | 0.00 | 0.00 | 79 | 1016.7 | |
| 20260506023157 | 14 | 0.0 | 0.0 | 0.00 | 0.00 | 0.00 | 79 | 1016.7 | |
| 20260506022137 | 14 | 0.0 | 0.0 | 0.00 | 0.00 | 0.00 | 79 | 1016.7 | |
| 20260506021116 | 14 | 0.0 | 0.0 | 0.00 | 0.00 | 0.00 | 79 | 1016.7 | |
| 20260506020136 | 15 | 0.0 | 0.0 | 0.00 | 0.00 | 0.00 | 79 | 1016.7 | |
| 20260506015117 | 15 | 0.0 | 0.0 | 0.00 | 0.00 | 0.00 | 79 | 1016.7 | |
| 20260506014116 | 15 | 0.0 | 0.0 | 0.00 | 0.00 | 0.00 | 78 | 1016.8 | |
| 20260506013116 | 15 | 0.0 | 0.0 | 0.00 | 0.00 | 0.00 | 78 | 1016.7 | |
| 20260506012116 | 15 | 0.0 | 0.0 | 0.00 | 0.00 | 0.00 | 77 | 1016.6 | |
| 20260506011136 | 15 | 0.0 | 0.0 | 0.00 | 0.00 | 0.00 | 77 | 1016.7 | |
| 20260506005018 | 15 | 0.0 | 0.0 | 0.00 | 0.00 | 0.00 | 76 | 1016.6 | |
| 20260506004018 | 15 | 0.0 | 0.0 | 0.00 | 0.00 | 0.00 | 75 | 1016.6 | |
| 20260506003038 | 15 | 0.0 | 0.0 | 0.00 | 0.00 | 0.00 | 75 | 1016.5 | |
| 20260506002017 | 15 | 0.0 | 0.0 | 0.00 | 0.00 | 0.00 | 74 | 1016.5 | |
| 20260506001017 | 15 | 0.0 | 0.0 | 0.00 | 0.00 | 0.00 | 74 | 1016.4 | |
| 20260506000017 | 16 | 0.0 | 0.0 | 0.00 | 0.00 | 0.00 | 74 | 1016.4 | |
| 20260505235017 | 16 | 0.0 | 0.0 | 0.00 | 0.00 | 0.00 | 74 | 1016.4 | |
| 20260505234017 | 16 | 0.0 | 0.0 | 0.00 | 0.00 | 0.00 | 73 | 1016.4 | |
| 20260505233015 | 16 | 0.0 | 0.0 | 0.00 | 0.00 | 0.00 | 73 | 1016.4 | |
| 20260505232017 | 16 | 0.0 | 0.0 | 0.00 | 0.00 | 0.00 | 72 | 1016.3 | |
| 20260505231017 | 16 | 0.0 | 0.0 | 0.00 | 0.00 | 0.00 | 72 | 1016.3 | |
| 20260505230117 | 16 | 0.0 | 0.0 | 0.00 | 0.00 | 0.00 | 72 | 1016.3 | |
| 20260505225117 | 16 | 0.0 | 0.0 | 0.00 | 0.00 | 0.00 | 71 | 1016.5 | |
| 20260505224116 | 16 | 0.0 | 0.0 | 0.00 | 0.00 | 0.00 | 71 | 1016.5 | |
| 20260505223117 | 16 | 0.0 | 0.0 | 0.00 | 0.00 | 0.00 | 71 | 1016.6 | |
| 20260505222116 | 16 | 0.0 | 0.0 | 0.00 | 0.00 | 0.00 | 71 | 1016.7 | |
| 20260505221116 | 16 | 0.0 | 0.0 | 0.00 | 0.00 | 0.00 | 71 | 1016.7 | |
| 20260505220117 | 16 | 0.0 | 0.0 | 0.00 | 0.00 | 0.00 | 71 | 1016.7 | |
| 20260505215157 | 16 | 0.0 | 0.0 | 0.00 | 0.00 | 0.00 | 70 | 1016.7 | |
| 20260505214137 | 16 | 0.0 | 0.0 | 0.00 | 0.00 | 0.00 | 71 | 1016.7 | |
| 20260505213116 | 16 | 0.0 | 0.0 | 0.00 | 0.00 | 0.00 | 70 | 1016.8 | |
| 20260505212117 | 16 | 0.0 | 0.0 | 0.00 | 0.00 | 0.00 | 73 | 1016.8 | |
| 20260505211116 | 15 | 0.0 | 0.0 | 0.00 | 0.00 | 0.00 | 73 | 1017.0 | |
| 20260505210116 | 15 | 0.0 | 0.0 | 0.00 | 0.00 | 0.00 | 74 | 1016.9 | |
| 20260505205116 | 15 | 0.0 | 0.0 | 0.00 | 0.00 | 0.00 | 74 | 1017.0 | |
| 20260505204136 | 15 | 0.0 | 0.0 | 0.00 | 0.00 | 0.00 | 75 | 1017.1 | |
| 20260505203136 | 15 | 0.0 | 0.0 | 0.00 | 0.00 | 0.00 | 74 | 1017.0 |